Location: Beaurecueil
(43.5122°N, 5.5450°E)
Time: 21:06:25
(UTC+00:00)

SPOT 3 Rocket - Pass Details

Date: 18 September 2020
Orbit: 780 x 794 km, 98.7° (Epoch: 27 October)

Event Time Altitude Azimuth Distance (km) Brightness Sun altitude
Exits shadow 20:03:37 69° 170° (S) 833 3.4 -25.4°
Maximum altitude 20:04:16 88° 256° (WSW) 787 3.4 -25.5°
Drops below altitude 10° 20:09:26 10° 346° (NNW) 2,343 6.5 -26.3°
Sets 20:11:46 0° 346° (NNW) 3,276 7.4 -26.7°
